Location: Briis
(48.6240°N, 2.1211°E)
Time: 07:15:09
(UTC+00:00)

ERS-2 - Pass Details

Date: 25 September 2020
Orbit: 492 x 499 km, 98.6° (Epoch: 22 October)

Event Time Altitude Azimuth Distance (km) Brightness Sun altitude
Rises 03:36:42 0° 153° (SSE) 2,580 5.8 -21.1°
Reaches altitude 10° 03:38:47 10° 149° (SSE) 1,701 4.9 -20.8°
Maximum altitude 03:42:22 55° 72° (ENE) 604 2.8 -20.2°
Drops below altitude 10° 03:45:58 10° 353° (N) 1,713 5.0 -19.7°
Sets 03:48:05 0° 350° (N) 2,600 5.9 -19.4°
